| time (UTC) | temp C | wind direction | speed KPH | gust KPH | rain 1hr cm | rain 24hr cm | rain mn cm | humidity % | barometer mb |
| 20260510060809 | 17 | 282 | 0.0 | 0.0 | 0.00 | 0.03 | 0.03 | 66 | 1028.5 |
| 20260510055307 | 17 | 275 | 0.0 | 0.0 | 0.00 | 0.03 | 0.03 | 64 | 1028.4 |
| 20260510053803 | 17 | 347 | 0.0 | 0.0 | 0.00 | 0.03 | 0.03 | 65 | 1028.5 |
| 20260510052306 | 17 | 304 | 0.0 | 1.6 | 0.00 | 0.03 | 0.03 | 65 | 1028.5 |
| 20260510050759 | 17 | 265 | 0.0 | 0.0 | 0.00 | 0.03 | 0.03 | 63 | 1028.4 |
| 20260510045255 | 18 | 282 | 0.0 | 1.6 | 0.00 | 0.03 | 0.03 | 63 | 1028.5 |
| 20260510043752 | 17 | 346 | 1.6 | 1.6 | 0.00 | 0.03 | 0.03 | 64 | 1028.5 |
| 20260510042247 | 17 | 330 | 0.0 | 1.6 | 0.00 | 0.03 | 0.03 | 63 | 1028.6 |
| 20260510040744 | 17 | 314 | 0.0 | 1.6 | 0.00 | 0.03 | 0.03 | 63 | 1028.5 |
| 20260510035244 | 17 | 278 | 0.0 | 0.0 | 0.00 | 0.03 | 0.03 | 64 | 1028.7 |
| 20260510033740 | 17 | 291 | 0.0 | 0.0 | 0.00 | 0.03 | 0.03 | 64 | 1028.8 |
| 20260510032236 | 19 | 67 | 3.2 | 3.2 | 0.00 | 0.03 | 0.03 | 59 | 1029.1 |
| 20260510030733 | 20 | 312 | 0.0 | 1.6 | 0.00 | 0.03 | 0.03 | 58 | 1029.0 |
| 20260510025231 | 18 | 331 | 0.0 | 1.6 | 0.00 | 0.03 | 0.03 | 64 | 1029.3 |
| 20260510023731 | 16 | 345 | 0.0 | 0.0 | 0.00 | 0.03 | 0.03 | 66 | 1029.5 |
| 20260510022231 | 17 | 334 | 1.6 | 1.6 | 0.00 | 0.03 | 0.03 | 66 | 1029.9 |
| 20260510020730 | 17 | 309 | 1.6 | 3.2 | 0.00 | 0.03 | 0.03 | 65 | 1030.1 |
| 20260510015229 | 16 | 318 | 1.6 | 1.6 | 0.00 | 0.03 | 0.03 | 67 | 1030.2 |
| 20260510013729 | 16 | 285 | 1.6 | 1.6 | 0.00 | 0.03 | 0.03 | 68 | 1030.3 |
| 20260510012226 | 16 | 278 | 0.0 | 0.0 | 0.00 | 0.03 | 0.03 | 68 | 1030.3 |
| 20260510010725 | 15 | 281 | 0.0 | 0.0 | 0.00 | 0.03 | 0.03 | 70 | 1030.4 |
| 20260510005220 | 15 | 305 | 0.0 | 0.0 | 0.00 | 0.03 | 0.03 | 71 | 1030.3 |
| 20260510003719 | 15 | 285 | 0.0 | 0.0 | 0.00 | 0.03 | 0.03 | 72 | 1030.4 |
| 20260510002217 | 15 | 41 | 0.0 | 0.0 | 0.00 | 0.03 | 0.03 | 73 | 1030.3 |
| 20260510000713 | 15 | 31 | 1.6 | 3.2 | 0.00 | 0.03 | 0.03 | 74 | 1030.5 |
| 20260509235210 | 15 | 268 | 0.0 | 0.0 | 0.00 | 0.03 | 0.03 | 76 | 1030.5 |
| 20260509233707 | 14 | 18 | 0.0 | 0.0 | 0.00 | 0.03 | 0.03 | 75 | 1030.7 |
| 20260509232203 | 14 | 270 | 0.0 | 0.0 | 0.00 | 0.03 | 0.03 | 77 | 1030.5 |
| 20260509230700 | 13 | 161 | 3.2 | 4.8 | 0.00 | 0.03 | 0.03 | 79 | 1030.4 |
| 20260509225200 | 13 | 299 | 0.0 | 0.0 | 0.00 | 0.03 | 0.03 | 81 | 1030.3 |
| 20260509223656 | 13 | 299 | 1.6 | 1.6 | 0.00 | 0.03 | 0.03 | 81 | 1029.9 |
| 20260509222151 | 12 | 268 | 0.0 | 0.0 | 0.00 | 0.03 | 0.03 | 84 | 1029.9 |
| 20260509220651 | 12 | 274 | 0.0 | 0.0 | 0.00 | 0.03 | 0.03 | 86 | 1029.7 |
| 20260509215146 | 11 | 270 | 0.0 | 0.0 | 0.00 | 0.03 | 0.03 | 91 | 1029.6 |
| 20260509213643 | 11 | 261 | 0.0 | 0.0 | 0.00 | 0.03 | 0.03 | 91 | 1029.5 |
| 20260509212138 | 11 | 272 | 0.0 | 0.0 | 0.00 | 0.03 | 0.03 | 90 | 1029.1 |
| 20260509210634 | 11 | 266 | 0.0 | 1.6 | 0.00 | 0.03 | 0.03 | 90 | 1029.2 |
| 20260509205132 | 11 | 253 | 0.0 | 0.0 | 0.18 | 0.03 | 0.03 | 91 | 1029.0 |
| 20260509203632 | 11 | 271 | 0.0 | 0.0 | 0.00 | 0.00 | 0.00 | 92 | 1028.9 |
| 20260509202132 | 10 | 218 | 0.0 | 0.0 | 0.00 | 0.00 | 0.00 | 92 | 1028.7 |
| 20260509200632 | 10 | 258 | 0.0 | 0.0 | 0.00 | 0.00 | 0.00 | 93 | 1028.7 |
| 20260509195131 | 10 | 239 | 0.0 | 0.0 | 0.00 | 0.00 | 0.00 | 93 | 1028.6 |
| 20260509193629 | 10 | 246 | 0.0 | 0.0 | 0.00 | 0.00 | 0.00 | 93 | 1028.3 |
| 20260509192129 | 10 | 242 | 0.0 | 1.6 | 0.00 | 0.00 | 0.00 | 93 | 1028.3 |
| 20260509190628 | 10 | 262 | 0.0 | 0.0 | 0.00 | 0.00 | 0.00 | 92 | 1028.3 |
| 20260509185125 | 11 | 257 | 0.0 | 0.0 | 0.00 | 0.00 | 0.00 | 92 | 1028.1 |
| 20260509183622 | 11 | 255 | 0.0 | 0.0 | 0.00 | 0.00 | 0.00 | 94 | 1028.0 |
| 20260509182116 | 10 | 268 | 0.0 | 0.0 | 0.00 | 0.00 | 0.00 | 94 | 1028.1 |
| 20260509180614 | 11 | 229 | 0.0 | 0.0 | 0.00 | 0.00 | 0.00 | 95 | 1027.9 |
| 20260509175109 | 11 | 265 | 0.0 | 0.0 | 0.00 | 0.00 | 0.00 | 95 | 1027.9 |
| 20260509173607 | 11 | 248 | 0.0 | 0.0 | 0.00 | 0.00 | 0.00 | 95 | 1028.1 |
| 20260509172102 | 11 | 265 | 0.0 | 0.0 | 0.00 | 0.00 | 0.00 | 95 | 1028.1 |
| 20260509170556 | 11 | 257 | 0.0 | 0.0 | 0.00 | 0.00 | 0.00 | 94 | 1028.2 |
| 20260509165052 | 11 | 253 | 0.0 | 0.0 | 0.00 | 0.00 | 0.00 | 94 | 1028.4 |
| 20260509163548 | 12 | 252 | 0.0 | 0.0 | 0.00 | 0.00 | 0.00 | 94 | 1028.3 |
| 20260509162047 | 12 | 246 | 0.0 | 0.0 | 0.00 | 0.00 | 0.00 | 94 | 1028.4 |
| 20260509160547 | 11 | 263 | 0.0 | 0.0 | 0.00 | 0.00 | 0.00 | 94 | 1028.5 |
| 20260509155046 | 11 | 261 | 0.0 | 0.0 | 0.00 | 0.00 | 0.00 | 93 | 1028.6 |
| 20260509153543 | 11 | 255 | 0.0 | 0.0 | 0.00 | 0.00 | 0.00 | 93 | 1028.7 |
| 20260509152039 | 11 | 259 | 0.0 | 0.0 | 0.00 | 0.00 | 0.00 | 93 | 1028.6 |
| 20260509150536 | 11 | 247 | 0.0 | 0.0 | 0.00 | 0.00 | 0.00 | 93 | 1028.8 |
| 20260509145036 | 11 | 264 | 0.0 | 0.0 | 0.00 | 0.00 | 0.00 | 93 | 1028.8 |
| 20260509143534 | 11 | 264 | 0.0 | 0.0 | 0.00 | 0.00 | 0.00 | 92 | 1028.6 |
| 20260509142035 | 11 | 283 | 0.0 | 0.0 | 0.00 | 0.00 | 0.00 | 92 | 1028.9 |
| 20260509140531 | 11 | 266 | 0.0 | 0.0 | 0.00 | 0.00 | 0.00 | 91 | 1028.8 |
| 20260509135029 | 12 | 283 | 0.0 | 0.0 | 0.00 | 0.00 | 0.00 | 90 | 1028.7 |
| 20260509133526 | 12 | 256 | 0.0 | 0.0 | 0.00 | 0.00 | 0.00 | 90 | 1028.9 |
| 20260509132026 | 12 | 257 | 0.0 | 0.0 | 0.00 | 0.00 | 0.00 | 88 | 1028.9 |
| 20260509130525 | 12 | 217 | 0.0 | 1.6 | 0.00 | 0.00 | 0.00 | 86 | 1029.1 |
| 20260509125021 | 13 | 246 | 0.0 | 0.0 | 0.00 | 0.00 | 0.00 | 85 | 1028.9 |
| 20260509123519 | 12 | 201 | 0.0 | 1.6 | 0.00 | 0.00 | 0.00 | 86 | 1029.0 |
| 20260509122015 | 12 | 219 | 1.6 | 3.2 | 0.00 | 0.00 | 0.00 | 88 | 1029.0 |
| 20260509120513 | 12 | 224 | 1.6 | 1.6 | 0.00 | 0.00 | 0.00 | 89 | 1028.7 |
| 20260509115012 | 12 | 263 | 0.0 | 0.0 | 0.00 | 0.00 | 0.00 | 89 | 1028.9 |
| 20260509113512 | 12 | 224 | 0.0 | 0.0 | 0.00 | 0.00 | 0.00 | 88 | 1028.7 |
| 20260509112008 | 12 | 231 | 0.0 | 0.0 | 0.00 | 0.00 | 0.00 | 88 | 1028.7 |
| 20260509110504 | 12 | 271 | 0.0 | 0.0 | 0.00 | 0.00 | 0.00 | 88 | 1028.9 |
| 20260509105003 | 12 | 248 | 0.0 | 0.0 | 0.00 | 0.00 | 0.00 | 88 | 1028.7 |
| 20260509103500 | 13 | 260 | 0.0 | 0.0 | 0.00 | 0.00 | 0.00 | 86 | 1028.8 |
| 20260509101957 | 12 | 78 | 0.0 | 1.6 | 0.00 | 0.00 | 0.00 | 88 | 1029.0 |
| 20260509100454 | 13 | 265 | 0.0 | 0.0 | 0.00 | 0.00 | 0.00 | 87 | 1028.7 |
| 20260509094950 | 13 | 207 | 0.0 | 1.6 | 0.00 | 0.00 | 0.00 | 88 | 1028.7 |
| 20260509093448 | 13 | 270 | 0.0 | 1.6 | 0.00 | 0.00 | 0.00 | 88 | 1028.7 |
| 20260509091947 | 13 | 241 | 0.0 | 0.0 | 0.00 | 0.00 | 0.00 | 88 | 1028.6 |
| 20260509090444 | 13 | 249 | 0.0 | 0.0 | 0.00 | 0.00 | 0.00 | 87 | 1028.6 |
| 20260509084940 | 13 | 250 | 0.0 | 0.0 | 0.00 | 0.00 | 0.00 | 84 | 1028.6 |
| 20260509083438 | 13 | 256 | 0.0 | 0.0 | 0.00 | 0.00 | 0.00 | 85 | 1028.4 |
| 20260509081935 | 14 | 251 | 0.0 | 0.0 | 0.00 | 0.00 | 0.00 | 85 | 1028.4 |
| 20260509080433 | 15 | 265 | 0.0 | 0.0 | 0.00 | 0.00 | 0.00 | 86 | 1028.2 |
| 20260509074931 | 15 | 259 | 0.0 | 0.0 | 0.00 | 0.00 | 0.00 | 85 | 1028.3 |
| 20260509073427 | 16 | 259 | 0.0 | 0.0 | 0.00 | 0.00 | 0.00 | 86 | 1028.1 |
| 20260509071922 | 16 | 272 | 0.0 | 0.0 | 0.00 | 0.00 | 0.00 | 85 | 1028.1 |
| 20260509070420 | 16 | 272 | 0.0 | 0.0 | 0.00 | 0.00 | 0.00 | 85 | 1028.2 |
| 20260509064919 | 16 | 282 | 0.0 | 0.0 | 0.00 | 0.00 | 0.00 | 84 | 1028.0 |
| 20260509063415 | 16 | 287 | 0.0 | 0.0 | 0.00 | 0.00 | 0.00 | 84 | 1027.9 |
| 20260509061913 | 16 | 284 | 0.0 | 0.0 | 0.00 | 0.00 | 0.00 | 85 | 1028.1 |